Preview of NWS' New Version of Forecast
This preview is not operational and should not be used for support decisions.

Regional Weather Roundup (RWR)

Issued by National Weather Service (NWS)

                            
511 
ASCA42 TJSJ 212310
RWRPR 
PUERTO RICO/U.S. VIRGIN ISLANDS HOURLY WEATHER ROUNDUP
NATIONAL WEATHER SERVICE SAN JUAN PR
700 PM AST THU JUN 21 2018

PRZ001>002-007>008-010-220000-
PUERTO RICO
  
CITY           SKY/WX    TMP DP  RH WIND       PRES   REMARKS
SAN JUAN LMM   MOCLDY    82  73  74 E7        30.04R                  
AGUADILLA      CLEAR     81  72  74 CALM      30.05R                  
CEIBA          PTCLDY    81  75  83 E7        30.05S                  
$$

VIZ001>002-220000-
U.S. VIRGIN ISLANDS
  
CITY           SKY/WX    TMP DP  RH WIND       PRES   REMARKS
CHARLOTTE AMA  CLEAR     82  72  69 E10       30.03R                  
CHRISTIANSTED  PTCLDY    82  70  65 E14       30.04R                  
$$

HOURLY WEATHER ROUNDUP FOR THE NEWS MEDIA
  
CITY           SKY/WX    TMP DP  RH WIND       PRES   REMARKS
ORLANDO        FAIR      82  78  88 W6        29.91R HX  91           
NEW YORK       PTSUNNY   76  63  64 S7        29.78R                  
NEWARK         PTSUNNY   83  56  39 S7        29.76R                  
CHICAGO        CLOUDY    66  62  87 E16G24    29.77S FOG              
HARTFORD       FAIR      72  66  81 CALM      29.79R                  
BOSTON         FAIR      67  59  75 SE8       29.81R                  
DALLAS         MOSUNNY   99  63  30 W8        29.83F HX 101           
PHILADELPHIA   PTSUNNY   81  62  52 CALM      29.77R                  
LOS ANGELES    MOSUNNY   71  60  68 W13       29.91F                  
WASHINGTON DC  PTSUNNY   77  68  73 NE6       29.79R